GFSNIL_sfc_temp_057.txt.gz
Temp
73 76 77 77 78 76 77 81 80 77 78 78 77 77 75 76 76 74 74 72 69 69
72 74 77 78 77 79 77 83 79 78 77 78 77 76 74 77 75 74 73 69 69 69
73 74 76 78 76 77 78 79 78 78 77 77 77 77 76 76 77 74 70 69 71 72
72 75 76 76 77 77 77 77 79 79 78 78 77 77 76 73 75 72 69 70 70 71
72 73 73 74 76 77 77 78 80 79 79 79 78 77 75 74 73 69 68 72 73 73
70 71 72 74 75 77 78 78 79 79 79 79 78 76 74 77 74 74 75 74 72 74
70 71 72 74 75 76 78 78 78 78 79 78 78 78 78 76 73 73 69 69 74 74
71 72 74 75 75 76 77 78 79 77 77 78 77 79 77 72 70 68 72 72 73 73
73 73 73 73 72 72 75 76 77 75 76 75 77 53 56 66 70 74 73 72 72 72
73 73 72 70 69 69 70 73 73 74 76 75 73 50 52 57 74 74 72 71 69 68
72 71 70 67 68 68 71 72 72 72 72 70 61 47 48 52 73 72 72 71 70 68
69 68 68 68 68 69 70 69 69 68 67 61 56 46 47 61 72 71 69 70 70 70
68 68 69 68 67 68 69 67 63 63 68 59 60 45 47 61 73 66 64 65 66 50
67 69 68 67 67 65 65 61 62 63 63 63 61 55 46 50 72 69 70 70 69 63

GFSNIL_sfc_temp_060.txt.gz
Temp
77 81 82 81 84 87 90 90 84 83 85 85 86 84 83 84 83 81 80 78 79 83
74 75 78 81 81 83 84 86 82 83 84 85 85 83 82 84 80 81 79 78 77 80
77 78 76 76 77 81 83 83 84 85 84 83 83 83 81 83 81 80 81 83 79 78
77 79 80 80 81 81 82 83 82 85 84 84 83 83 81 83 83 81 81 81 79 77
77 77 77 79 81 83 83 84 85 86 86 86 85 83 82 83 84 82 80 79 79 79
76 76 76 78 80 82 84 85 86 87 86 86 86 84 84 84 83 82 81 79 78 79
76 77 77 78 80 82 84 85 85 86 87 88 87 86 85 84 82 81 80 80 79 79
75 77 79 79 80 82 83 85 87 86 87 87 86 87 83 82 81 81 79 77 78 79
75 77 78 79 79 80 82 84 85 85 86 84 87 56 60 74 80 78 77 74 78 79
75 77 77 81 80 80 80 81 82 83 84 81 82 53 55 59 78 78 77 77 77 78
74 76 76 80 79 79 79 79 80 80 81 76 72 51 52 56 79 78 78 78 77 75
72 72 70 75 76 74 74 74 73 75 76 77 67 48 50 64 77 78 77 78 77 73
74 68 69 70 69 71 72 73 76 75 77 64 67 46 49 62 82 76 76 73 71 52
68 65 68 68 69 69 70 72 72 72 71 67 62 56 47 50 80 77 76 76 74 74

GFSNIL_sfc_temp_063.txt.gz
Temp
78 81 82 83 84 86 88 91 91 84 83 84 86 85 82 84 85 83 82 80 81 86
77 77 78 78 79 85 83 86 86 88 83 84 85 86 84 84 83 83 81 80 80 81
80 79 79 79 78 79 81 84 84 86 85 85 85 86 83 83 82 79 82 83 78 78
79 79 79 79 80 80 80 81 83 85 85 83 83 84 82 81 82 81 81 82 79 78
79 79 78 79 79 80 81 82 82 82 80 83 83 82 82 81 85 83 82 79 81 81
78 77 77 78 79 81 82 83 85 87 86 87 87 85 84 84 86 85 84 83 81 81
77 77 77 79 80 81 82 84 86 86 88 89 88 88 86 85 86 85 85 83 82 81
77 77 77 78 80 82 82 85 86 87 87 89 90 90 87 86 85 83 83 81 81 81
76 77 77 77 79 81 82 83 85 86 88 87 90 66 64 78 84 83 81 78 80 81
75 76 76 78 79 79 80 81 82 84 87 86 86 56 56 62 84 81 79 79 78 79
75 76 77 77 78 77 80 79 80 82 85 85 81 52 54 58 81 80 80 80 80 78
73 72 75 76 76 77 78 78 80 83 84 81 71 50 54 65 79 79 79 80 79 79
70 68 71 73 74 76 77 77 80 79 79 68 72 49 53 64 82 77 78 77 74 53
67 67 70 70 71 72 74 73 74 74 73 74 71 63 49 50 79 78 78 77 73 73

GFSNIL_sfc_temp_069.txt.gz
Temp
64 65 66 67 67 67 66 67 68 67 66 66 69 70 70 72 74 77 76 76 73 71
65 64 64 65 65 66 66 69 69 67 66 67 68 70 70 70 73 71 75 75 75 74
65 65 65 65 65 65 65 66 68 67 68 70 72 71 68 70 72 72 71 76 73 71
65 65 65 64 66 66 65 67 69 70 68 68 71 73 71 73 76 74 74 73 72 70
65 65 65 65 65 65 65 66 67 69 72 72 72 71 74 74 76 74 72 73 70 71
62 62 63 64 65 66 66 66 66 70 70 72 73 73 72 74 74 74 74 73 71 71
58 59 62 64 65 65 67 66 68 70 71 72 73 75 75 75 73 74 74 72 72 71
58 60 64 66 66 66 65 68 70 71 71 72 73 77 76 75 74 72 71 71 72 71
60 61 61 64 67 63 64 66 69 70 71 70 74 65 60 67 72 72 69 70 70 69
61 62 61 63 64 61 61 62 63 67 69 70 70 59 57 56 72 69 70 69 67 67
62 62 62 61 60 61 60 61 63 67 69 70 70 56 54 54 68 70 68 67 68 66
61 60 61 60 59 59 58 60 61 66 67 64 66 52 50 53 66 67 66 68 68 66
61 60 59 60 61 61 57 59 61 63 62 61 65 54 49 52 67 65 64 62 63 56
59 58 58 57 59 60 60 59 58 59 61 63 63 65 47 49 67 65 64 63 61 56

GFSNIL_sfc_temp_072.txt.gz
Temp
61 60 61 62 62 62 62 64 66 67 68 69 69 69 69 68 70 71 72 71 73 74
61 60 61 63 62 62 62 66 66 67 67 66 66 67 68 67 70 71 71 73 74 70
61 62 62 61 62 62 62 63 64 65 67 66 67 66 67 68 69 66 67 68 69 72
60 61 61 61 62 63 63 64 64 65 66 66 66 67 68 68 68 68 67 68 69 69
60 61 59 60 61 62 63 64 64 65 66 66 67 67 68 68 69 68 68 70 71 71
59 59 59 59 59 61 62 63 63 65 65 67 67 67 68 69 72 72 72 73 73 73
55 56 56 57 59 60 62 63 65 64 65 66 67 69 70 71 70 71 73 72 72 72
56 56 56 57 58 59 60 63 67 67 66 65 67 70 69 69 69 69 69 70 72 72
58 59 58 57 57 57 60 63 65 67 67 64 70 61 57 60 65 68 69 70 71 71
58 58 57 58 57 57 57 60 62 64 64 62 63 56 54 55 62 63 67 69 70 66
58 58 57 57 58 58 55 55 59 59 60 60 64 55 52 54 61 62 65 69 68 66
58 58 57 57 57 57 53 57 55 58 58 58 59 53 51 53 61 62 64 68 67 66
57 57 57 58 57 58 56 57 59 59 57 57 59 53 47 50 59 62 64 63 63 54
57 56 57 57 56 56 57 58 55 56 57 58 58 58 49 47 57 63 63 61 62 62

GFSNIL_sfc_temp_075.txt.gz
Temp
59 58 58 59 59 59 59 61 63 64 65 66 68 68 68 67 67 67 68 69 70 71
58 57 58 59 58 59 60 63 63 63 63 65 65 67 66 65 66 67 69 70 71 71
59 59 58 58 59 58 59 60 61 62 62 63 64 64 63 65 66 65 67 67 65 67
59 59 58 58 58 58 58 59 60 62 63 63 63 63 64 65 67 67 67 66 65 66
57 57 57 58 59 59 59 60 61 62 63 64 64 63 62 63 66 67 65 66 66 67
57 56 56 57 58 58 59 59 60 62 63 63 64 63 63 63 65 66 67 69 69 68
55 56 56 56 56 57 58 58 59 60 62 63 64 64 64 64 63 64 68 68 69 71
54 54 55 55 56 57 58 59 59 60 61 61 64 67 63 63 62 62 63 65 69 69
56 56 55 54 55 55 55 56 57 58 58 59 65 60 56 59 60 61 61 63 65 68
58 58 57 56 56 55 54 54 54 55 56 57 60 54 52 54 59 58 58 60 62 65
59 59 56 55 54 53 51 51 51 53 54 56 60 53 50 51 56 57 59 61 62 63
57 57 56 55 54 52 50 50 50 54 55 53 54 50 50 51 57 58 59 61 63 65
59 58 57 57 55 53 50 53 55 56 52 53 55 51 45 47 57 57 58 60 62 54
58 58 58 56 54 53 52 53 52 52 52 52 54 56 46 44 55 57 58 60 62 63